SA3PJN-WX Weather Reports


time (UTC)temp
F
wind
direction
speed
knots
gust
knots
rain 1hr
in
rain 24hr
in
rain mn
in
humidity
%
barometer
mb
20260905083310 51 260 1.7 4.3 0.00 0.00 0.00 10 954.9
20260905082810 51 339 1.7 4.3 0.00 0.00 0.00 10 954.9
20260905082310 51 272 1.7 4.3 0.00 0.00 0.00 10 954.9
20260905081810 51 259 1.7 3.5 0.00 0.00 0.00 99 954.8
20260905081310 51 331 0.9 3.5 0.00 0.00 0.00 99 954.8
20260905080810 52 9 0.9 2.6 0.00 0.00 0.00 10 954.8
20260905080310 52 148 0.9 2.6 0.00 0.00 0.00 10 954.8
20260905075810 51 50 0.9 2.6 0.00 0.00 0.00 10 954.8
20260905075310 51 238 0.9 2.6 0.00 0.00 0.00 10 954.8
20260905074810 51 53 0.9 3.5 0.00 0.00 0.00 10 954.7
20260905074310 50 349 0.9 5.2 0.00 0.00 0.00 10 954.7
20260905073810 50 93 1.7 5.2 0.00 0.00 0.00 10 954.7
20260905073310 50 338 1.7 4.3 0.00 0.00 0.00 10 954.6
20260905072809 50 35 1.7 4.3 0.00 0.00 0.00 10 954.5
20260905072309 49 0 1.7 4.3 0.00 0.00 0.00 10 954.4
20260905071809 49 344 2.6 4.3 0.00 0.00 0.00 10 954.4
20260905071309 49 247 2.6 4.3 0.00 0.00 0.00 10 954.3
20260905070809 49 248 2.6 5.2 0.00 0.00 0.00 10 954.2
20260905070309 49 281 2.6 5.2 0.00 0.00 0.00 10 954.2
20260905065809 50 242 0.9 5.2 0.00 0.00 0.00 99 954.2
20260905065309 51 240 0.9 2.6 0.00 0.00 0.00 99 954.3
20260905064809 50 144 0.9 2.6 0.00 0.00 0.00 10 954.3
20260905064309 50 247 0.9 2.6 0.00 0.00 0.00 99 954.1
20260905063809 50 87 0.0 0.9 0.00 0.00 0.00 10 954.2
20260905063309 49 68 0.0 1.7 0.00 0.00 0.00 10 954.1
20260905062809 49 189 0.9 2.6 0.00 0.00 0.00 10 954.1
20260905062309 48 159 0.9 2.6 0.00 0.00 0.00 10 954.1
20260905061809 49 94 0.0 1.7 0.00 0.00 0.00 10 954.0
20260905061309 48 216 0.0 1.7 0.00 0.00 0.00 10 954.0
20260905060809 48 146 0.9 1.7 0.00 0.00 0.00 10 953.9
20260905060308 48 115 0.9 3.5 0.00 0.00 0.00 10 953.9
20260905055808 47 56 1.7 3.5 0.00 0.00 0.00 10 953.9
20260905055308 47 333 1.7 3.5 0.00 0.00 0.00 10 953.8
20260905054808 47 282 1.7 3.5 0.00 0.00 0.00 10 953.8
20260905054308 47 295 1.7 3.5 0.00 0.00 0.00 10 953.8
20260905053808 47 238 0.9 2.6 0.00 0.00 0.00 10 953.7
20260905053308 47 248 0.9 1.7 0.00 0.00 0.00 10 953.6
20260905052738 47 219 0.9 2.6 0.00 0.00 0.00 10 953.8
20260905052238 47 119 0.9 2.6 0.00 0.00 0.00 10 953.7
20260905051738 47 132 0.9 3.5 0.00 0.00 0.00 10 953.7
20260905051238 47 2 0.9 3.5 0.00 0.00 0.00 10 953.6
20260905050738 47 306 0.9 1.7 0.00 0.00 0.00 10 953.6
20260905050238 46 344 0.9 1.7 0.00 0.00 0.00 10 953.5
20260905045738 46 258 0.9 2.6 0.00 0.00 0.00 10 953.6
20260905045238 46 306 0.9 2.6 0.00 0.00 0.00 99 953.5
20260905044738 46 259 0.9 2.6 0.00 0.00 0.00 98 953.5
20260905044237 47 89 0.9 2.6 0.00 0.00 0.00 98 953.4
20260905043737 47 147 0.9 2.6 0.00 0.00 0.00 98 953.4
20260905043237 47 128 0.9 1.7 0.00 0.00 0.00 98 953.4
20260905042737 47 107 0.0 1.7 0.00 0.00 0.00 98 953.4
20260905042237 47 139 0.0 1.7 0.00 0.00 0.00 99 953.5
20260905041737 47 120 0.0 2.6 0.00 0.00 0.00 99 953.5
20260905041237 46 95 0.9 3.5 0.00 0.00 0.00 99 953.5
20260905040737 47 118 0.9 3.5 0.00 0.00 0.00 98 953.5
20260905040237 47 93 0.0 1.7 0.00 0.00 0.00 99 953.5
20260905035737 47 156 0.0 0.9 0.00 0.00 0.00 98 953.4
20260905035237 46 147 0.0 1.7 0.00 0.00 0.00 99 953.4
20260905034737 46 222 0.0 1.7 0.00 0.00 0.00 99 953.4
20260905034237 46 90 0.9 1.7 0.00 0.00 0.00 99 953.4
20260905033737 45 229 0.9 2.6 0.00 0.00 0.00 99 953.3
20260905033236 45 81 0.9 2.6 0.00 0.00 0.00 99 953.2
20260905032736 45 53 0.9 1.7 0.00 0.00 0.00 10 953.2
20260905032236 45 150 0.9 2.6 0.00 0.00 0.00 10 953.1
20260905031736 44 104 0.9 2.6 0.00 0.00 0.00 10 953.2
20260905031236 44 103 0.9 3.5 0.00 0.00 0.00 10 953.1
20260905030736 44 35 1.7 3.5 0.00 0.00 0.00 10 953.2
20260905030236 44 301 2.6 4.3 0.00 0.00 0.00 10 953.1
20260905025736 44 308 2.6 4.3 0.00 0.00 0.00 10 953.1
20260905025236 43 317 1.7 4.3 0.00 0.00 0.00 10 953.1
20260905024736 43 333 0.9 3.5 0.00 0.00 0.00 10 953.1
20260905024236 43 258 0.9 2.6 0.00 0.00 0.00 10 952.9
20260905023736 43 245 0.9 2.6 0.00 0.00 0.00 10 952.9
20260905023236 43 257 0.9 1.7 0.00 0.00 0.00 10 952.9
20260905022736 43 169 0.9 3.5 0.00 0.00 0.00 10 952.8
20260905022236 43 131 2.6 5.2 0.00 0.00 0.00 10 952.8
20260905021735 43 3 2.6 5.2 0.00 0.00 0.00 10 952.8
20260905021235 43 313 3.5 5.2 0.00 0.00 0.00 10 952.8
20260905020735 42 298 3.5 5.2 0.00 0.00 0.00 10 952.8
20260905020235 42 292 3.5 5.2 0.00 0.00 0.00 10 952.8
20260905015735 42 341 2.6 5.2 0.00 0.00 0.00 10 953.0
20260905015235 43 301 2.6 5.2 0.00 0.00 0.00 10 952.9
20260905014735 43 281 3.5 5.2 0.00 0.00 0.00 10 952.8
20260905014235 44 295 3.5 5.2 0.00 0.00 0.00 10 953.0
20260905013235 44 325 1.7 3.5 0.00 0.00 0.00 10 953.0
20260905012735 44 238 0.9 2.6 0.00 0.00 0.00 10 952.9
20260905012235 45 230 0.0 1.7 0.00 0.00 0.00 10 953.0
20260905011735 45 167 0.0 1.7 0.00 0.00 0.00 10 952.9
20260905011235 44 135 0.9 2.6 0.00 0.00 0.00 10 953.0
20260905010734 44 113 0.9 2.6 0.00 0.00 0.00 10 953.0
20260905010234 44 267 0.0 2.6 0.00 0.00 0.00 10 953.0
20260905005734 44 286 0.0 0.9 0.00 0.00 0.00 10 953.1
20260905005234 44 235 0.0 1.7 0.00 0.00 0.00 10 953.1
20260905004734 44 133 0.0 1.7 0.00 0.00 0.00 10 953.1
20260905004234 44 226 0.0 1.7 0.00 0.00 0.00 10 952.9
20260905003734 44 343 0.9 2.6 0.00 0.00 0.00 10 952.9
20260905003234 44 288 1.7 3.5 0.00 0.00 0.00 10 952.8
20260905002734 44 258 2.6 4.3 0.00 0.00 0.00 10 952.8
20260905002234 44 279 3.5 4.3 0.00 0.00 0.00 10 952.8
20260905001734 44 273 3.5 4.3 0.00 0.00 0.00 10 952.8
20260905001234 44 274 3.5 4.3 0.00 0.00 0.00 10 952.7
20260905000734 44 260 3.5 4.3 0.00 0.00 0.00 10 952.8
20260905000233 44 272 3.5 5.2 0.00 0.00 0.00 10 952.8
20260904235733 44 262 3.5 5.2 0.00 0.00 0.00 10 952.8
20260904235233 44 260 3.5 5.2 0.00 0.00 0.00 10 952.8
20260904234733 44 255 3.5 4.3 0.00 0.00 0.00 10 952.9
20260904234233 44 269 3.5 4.3 0.00 0.00 0.00 10 952.9
20260904233733 44 264 3.5 4.3 0.00 0.00 0.00 10 952.9
20260904233233 45 275 2.6 3.5 0.00 0.00 0.00 10 952.8
20260904232733 45 259 2.6 3.5 0.00 0.00 0.00 10 952.9
20260904232233 44 257 2.6 3.5 0.00 0.00 0.00 10 952.9
20260904231733 43 270 1.7 3.5 0.00 0.00 0.00 10 953.0
20260904231233 43 274 0.9 2.6 0.00 0.00 0.00 10 953.0
20260904230733 43 280 0.9 1.7 0.00 0.00 0.00 10 953.0
20260904230233 44 275 0.9 2.6 0.00 0.00 0.00 10 953.0
20260904225733 44 258 0.9 2.6 0.00 0.00 0.00 10 953.0
20260904225232 44 240 0.9 2.6 0.00 0.00 0.00 10 953.0
20260904224732 44 248 0.9 3.5 0.00 0.00 0.00 10 953.0
20260904224232 44 248 0.9 3.5 0.00 0.00 0.00 10 953.0
20260904223732 44 167 0.9 3.5 0.00 0.00 0.00 10 952.9
20260904223232 44 296 1.7 2.6 0.00 0.00 0.00 10 952.8
20260904222732 45 297 1.7 2.6 0.00 0.00 0.00 10 952.9
20260904222232 45 289 1.7 3.5 0.00 0.00 0.00 10 952.8
20260904221732 45 285 2.6 3.5 0.00 0.00 0.00 10 952.9
20260904221232 45 297 2.6 3.5 0.00 0.00 0.00 10 952.9
20260904220732 45 279 2.6 3.5 0.00 0.00 0.00 10 952.9
20260904220232 45 295 2.6 3.5 0.00 0.00 0.00 10 952.9
20260904215732 45 298 2.6 4.3 0.00 0.00 0.00 10 952.8
20260904215232 45 291 2.6 4.3 0.00 0.00 0.00 10 952.9
20260904214732 45 300 2.6 3.5 0.00 0.00 0.00 10 952.9
20260904214232 45 303 2.6 3.5 0.00 0.00 0.00 10 953.0
20260904213732 45 310 2.6 3.5 0.00 0.00 0.00 10 953.0
20260904213231 45 304 2.6 3.5 0.00 0.00 0.00 10 953.0
20260904212731 45 310 2.6 3.5 0.00 0.00 0.00 10 952.9
20260904212231 45 323 2.6 2.6 0.00 0.00 0.00 10 952.8
20260904211731 45 308 2.6 2.6 0.00 0.00 0.00 10 952.9
20260904211231 45 322 2.6 2.6 0.00 0.00 0.00 10 952.8
20260904210731 45 310 1.7 2.6 0.00 0.00 0.00 10 952.9
20260904210231 45 309 2.6 3.5 0.00 0.00 0.00 10 952.8
20260904205731 45 307 2.6 3.5 0.00 0.00 0.00 10 952.9
20260904205231 45 294 2.6 3.5 0.00 0.00 0.00 10 952.9
20260904204731 45 313 2.6 3.5 0.00 0.00 0.00 10 953.0
20260904204231 45 322 2.6 4.3 0.00 0.00 0.00 10 953.0
20260904203731 45 336 2.6 4.3 0.00 0.00 0.00 10 952.9
20260904203231 45 308 2.6 4.3 0.00 0.00 0.00 10 952.9
20260904202731 46 327 2.6 4.3 0.00 0.00 0.00 10 952.8
20260904202231 46 331 3.5 5.2 0.00 0.00 0.00 99 952.7
20260904201730 46 326 3.5 5.2 0.00 0.00 0.00 99 952.7
20260904201230 46 315 3.5 5.2 0.00 0.00 0.00 99 952.7
20260904200730 46 300 3.5 5.2 0.00 0.00 0.00 99 952.7
20260904200230 46 305 3.5 5.2 0.00 0.00 0.00 99 952.7
20260904195730 46 304 3.5 6.1 0.00 0.00 0.00 99 952.8
20260904195230 47 311 3.5 6.1 0.00 0.00 0.00 98 952.8
20260904194730 47 303 4.3 7.0 0.00 0.00 0.00 98 952.7
20260904194230 47 305 4.3 7.0 0.00 0.00 0.00 98 952.7
20260904193730 47 308 3.5 7.0 0.00 0.00 0.00 98 952.7
20260904193230 47 311 3.5 6.1 0.00 0.00 0.00 98 952.9
20260904192730 47 307 3.5 5.2 0.00 0.00 0.00 98 952.8
20260904192230 47 306 3.5 6.1 0.00 0.00 0.00 98 952.8
20260904191730 47 310 3.5 6.1 0.00 0.00 0.00 98 952.8
20260904191230 47 314 3.5 4.3 0.00 0.00 0.00 97 952.8
20260904190730 47 311 3.5 4.3 0.00 0.00 0.00 97 952.9
20260904190229 47 332 3.5 4.3 0.00 0.00 0.00 96 952.8
20260904185729 48 305 3.5 4.3 0.00 0.00 0.00 96 952.8
20260904185229 48 311 3.5 5.2 0.00 0.00 0.00 95 952.8
20260904184729 48 307 3.5 5.2 0.00 0.00 0.00 94 952.9
20260904184229 48 313 3.5 5.2 0.00 0.00 0.00 94 952.9
20260904183729 49 314 3.5 6.1 0.00 0.00 0.00 93 953.0
20260904183229 49 308 3.5 6.1 0.00 0.00 0.00 91 952.9
20260904182729 49 302 3.5 7.0 0.00 0.00 0.00 91 952.8
20260904182229 49 304 3.5 7.0 0.00 0.00 0.00 90 952.8
20260904181729 50 317 3.5 7.0 0.00 0.00 0.00 88 952.8
20260904181229 50 314 3.5 5.2 0.00 0.00 0.00 88 952.8
20260904180729 50 315 3.5 4.3 0.00 0.00 0.00 87 952.8
20260904180229 50 311 3.5 6.1 0.00 0.00 0.00 86 952.9
20260904175729 51 320 3.5 6.1 0.00 0.00 0.00 85 952.8
20260904175229 51 303 2.6 4.3 0.00 0.00 0.00 84 952.7
20260904174729 51 302 2.6 4.3 0.00 0.00 0.00 83 952.7
20260904174228 51 302 3.5 5.2 0.00 0.00 0.00 83 952.6
20260904173728 52 301 2.6 5.2 0.00 0.00 0.00 81 952.6
20260904173228 52 312 2.6 4.3 0.00 0.00 0.00 81 952.7
20260904172728 52 309 2.6 5.2 0.00 0.00 0.00 81 952.5
20260904171728 53 323 3.5 7.0 0.00 0.00 0.00 79 952.6
20260904171228 53 308 3.5 6.1 0.00 0.00 0.00 78 952.6
20260904170728 53 300 3.5 6.1 0.00 0.00 0.00 78 952.6
20260904170228 53 309 3.5 6.1 0.00 0.00 0.00 79 952.6
20260904165728 54 312 3.5 7.0 0.00 0.00 0.00 78 952.7
20260904165228 54 315 3.5 7.0 0.00 0.00 0.00 78 952.7
20260904164728 54 336 3.5 6.1 0.00 0.00 0.00 77 952.7
20260904164228 54 294 3.5 6.1 0.00 0.00 0.00 77 952.8
20260904163728 55 297 3.5 7.0 0.00 0.00 0.00 78 952.7
20260904163227 55 310 3.5 7.8 0.00 0.00 0.00 77 952.8
20260904162727 55 344 4.3 7.8 0.00 0.00 0.00 75 952.8
20260904162227 55 349 4.3 7.8 0.00 0.00 0.00 75 952.8
20260904161727 55 326 4.3 7.8 0.00 0.00 0.00 73 952.7
20260904161227 55 350 3.5 7.8 0.00 0.00 0.00 72 952.8
20260904160727 56 26 3.5 7.8 0.00 0.00 0.00 71 952.8
20260904160227 56 294 3.5 7.8 0.00 0.00 0.00 71 952.8
20260904155727 56 328 3.5 7.8 0.00 0.00 0.00 68 952.8
20260904155227 56 24 2.6 6.1 0.00 0.00 0.00 69 952.8
20260904154727 56 334 3.5 6.1 0.00 0.00 0.00 71 952.8
20260904154227 56 23 3.5 7.0 0.00 0.00 0.00 69 952.7
20260904153727 56 336 3.5 7.8 0.00 0.00 0.00 69 952.7
20260904153227 56 287 3.5 7.8 0.00 0.00 0.00 68 952.9
20260904152727 56 324 3.5 6.1 0.00 0.00 0.00 68 952.9
20260904152226 56 305 2.6 6.1 0.00 0.00 0.00 69 953.0
20260904151726 56 335 2.6 6.1 0.00 0.00 0.00 68 953.0
20260904151226 56 282 2.6 5.2 0.00 0.00 0.00 68 952.9
20260904150726 57 326 2.6 7.0 0.00 0.00 0.00 67 953.0
20260904150226 57 19 3.5 7.0 0.00 0.00 0.00 68 953.1
20260904145726 57 284 3.5 8.7 0.00 0.00 0.00 69 953.1
20260904145226 57 70 3.5 8.7 0.00 0.00 0.00 69 953.1
20260904144726 57 315 3.5 8.7 0.00 0.00 0.00 71 953.1
20260904144226 57 353 3.5 8.7 0.00 0.00 0.00 69 953.0
20260904143726 56 309 4.3 9.6 0.00 0.00 0.00 69 953.0
20260904143226 57 46 4.3 9.6 0.00 0.00 0.00 68 953.0
20260904142726 57 315 5.2 12.2 0.00 0.00 0.00 66 953.2
20260904142226 57 288 4.3 13.0 0.00 0.00 0.00 67 953.1
20260904141726 57 36 4.3 13.0 0.00 0.00 0.00 66 953.2
20260904141226 57 296 4.3 7.8 0.00 0.00 0.00 68 953.3
20260904140726 56 318 4.3 7.8 0.00 0.00 0.00 72 953.2
20260904140225 56 319 4.3 9.6 0.00 0.00 0.00 73 953.2
20260904135725 56 6 4.3 9.6 0.00 0.00 0.00 72 953.2
20260904135225 58 329 4.3 9.6 0.00 0.00 0.00 69 953.3
20260904134725 58 351 5.2 9.6 0.00 0.00 0.00 69 953.3
20260904134225 59 14 4.3 9.6 0.00 0.00 0.00 68 953.3
20260904133725 58 274 5.2 9.6 0.00 0.00 0.00 70 953.4
20260904133225 58 300 5.2 8.7 0.00 0.00 0.00 73 953.4
20260904132725 57 298 6.1 10.4 0.00 0.00 0.00 71 953.5
20260904132225 57 288 6.1 11.3 0.00 0.00 0.00 72 953.4
20260904131725 56 273 6.1 11.3 0.00 0.00 0.00 75 953.5
20260904131225 58 293 4.3 9.6 0.00 0.00 0.00 70 953.6
20260904130725 60 0 4.3 9.6 0.00 0.00 0.00 66 953.7
20260904130225 59 78 3.5 9.6 0.00 0.00 0.00 60 953.6
20260904125725 60 6 2.6 8.7 0.00 0.00 0.00 60 953.8
20260904125224 60 71 3.5 9.6 0.00 0.00 0.00 63 953.8
20260904124724 59 68 4.3 9.6 0.00 0.00 0.00 60 953.7
20260904124224 59 32 4.3 9.6 0.00 0.00 0.00 69 953.8
20260904123724 58 69 5.2 9.6 0.00 0.00 0.00 62 953.8
20260904123224 58 51 5.2 9.6 0.00 0.00 0.00 67 953.9
20260904122724 59 326 3.5 9.6 0.00 0.00 0.00 67 954.0
20260904122224 59 57 4.3 9.6 0.00 0.00 0.00 70 954.0
20260904121724 58 58 5.2 10.4 0.00 0.00 0.00 73 954.0
20260904121224 57 66 5.2 10.4 0.00 0.00 0.00 69 954.0
20260904120724 59 74 4.3 9.6 0.00 0.00 0.00 67 954.1
20260904120224 60 24 2.6 7.0 0.00 0.00 0.00 73 954.2
20260904115654 59 358 2.6 7.0 0.00 0.00 0.00 73 954.2
20260904115154 58 359 1.7 5.2 0.00 0.00 0.00 75 954.3
20260904114654 57 31 1.7 4.3 0.00 0.00 0.00 75 954.1
20260904114154 56 311 1.7 4.3 0.00 0.00 0.00 77 954.2
20260904113654 56 336 1.7 5.2 0.00 0.00 0.00 77 954.1
20260904113154 56 64 2.6 6.1 0.00 0.00 0.00 77 954.2
20260904112654 56 312 3.5 7.8 0.00 0.00 0.00 78 954.2
20260904112153 56 307 3.5 7.8 0.00 0.00 0.00 77 954.2
20260904111653 57 306 3.5 7.8 0.00 0.00 0.00 78 954.3
20260904111153 57 349 2.6 7.8 0.00 0.00 0.00 77 954.3
20260904110653 56 290 2.6 7.0 0.00 0.00 0.00 78 954.3
20260904110153 55 260 2.6 7.0 0.00 0.00 0.00 79 954.3
20260904105653 56 74 2.6 7.0 0.00 0.00 0.00 78 954.3
20260904105153 56 346 2.6 7.0 0.00 0.00 0.00 77 954.4
20260904104653 58 1 2.6 7.0 0.00 0.00 0.00 78 954.6
20260904104153 56 359 1.7 6.1 0.00 0.00 0.00 83 954.4
20260904103653 55 338 2.6 7.0 0.00 0.00 0.00 82 954.3
20260904103153 54 63 2.6 7.0 0.00 0.00 0.00 83 954.3
20260904102653 55 19 2.6 6.1 0.00 0.00 0.00 81 954.4
20260904102153 54 345 2.6 6.1 0.00 0.00 0.00 83 954.4
20260904101653 54 20 3.5 7.0 0.00 0.00 0.00 84 954.4
20260904101152 54 5 3.5 7.0 0.00 0.00 0.00 84 954.5
20260904100652 54 278 2.6 7.0 0.00 0.00 0.00 83 954.5
20260904100152 55 12 3.5 7.8 0.00 0.00 0.00 81 954.5
20260904095652 54 297 3.5 7.8 0.00 0.00 0.00 87 954.7
20260904095152 54 17 3.5 9.6 0.00 0.00 0.00 83 954.7
20260904094652 56 295 4.3 9.6 0.00 0.00 0.00 84 954.7
20260904094152 55 352 4.3 9.6 0.00 0.00 0.00 83 954.8
20260904093652 55 287 3.5 7.8 0.00 0.00 0.00 83 954.8
20260904093152 54 268 2.6 7.8 0.00 0.00 0.00 88 954.8
20260904092652 53 325 2.6 7.0 0.00 0.00 0.00 87 954.8
20260904092152 52 339 3.5 9.6 0.00 0.00 0.00 87 954.8
20260904091652 53 339 3.5 9.6 0.00 0.00 0.00 86 954.8
20260904091152 54 296 3.5 7.8 0.00 0.00 0.00 85 954.8
20260904090652 53 323 3.5 7.0 0.00 0.00 0.00 88 954.9
20260904090152 53 274 2.6 7.0 0.00 0.00 0.00 87 954.9
20260904085652 53 359 2.6 7.0 0.00 0.00 0.00 89 954.9
20260904085152 52 270 3.5 7.0 0.00 0.00 0.00 88 955.0
20260904084652 52 322 2.6 7.0 0.00 0.00 0.00 89 954.9
20260904084151 53 334 2.6 6.1 0.00 0.00 0.00 90 954.8